#timestamp,LO_Frequency,Hit,StdDev 
1503576015.2,286046994.9,N,3.9
1503576035.1,286046995.0,N,4.0
1503576036.0,286046995.0,N,4.0
1503576055.8,286046997.9,N,3.8
1503576075.6,286046994.9,N,3.8
1503576095.5,286046997.5,N,3.6
1503576115.3,286046998.0,N,3.5
1503576135.2,286046996.7,N,3.4
1503576155.9,286046997.8,N,3.3
1503576175.7,286046997.3,N,3.2
1503576195.6,286046998.0,N,3.1
1503576215.4,286046997.1,N,3.0
1503576235.3,286046998.3,N,2.9
1503576255.1,286046998.4,N,2.9
1503576256.0,286046998.4,N,2.8
1503576275.8,286046998.3,N,2.7
1503576295.7,286046998.4,N,2.7
1503576315.5,286046998.8,N,2.6
1503576335.3,286046998.8,N,2.6
1503576355.2,286046998.8,N,2.5
1503576375.0,286046999.2,N,2.5
1503576375.9,286046999.2,N,2.4
1503576395.8,286046997.1,N,2.4
1503576415.6,286046998.0,N,2.4
1503576435.4,286046997.0,N,2.4
1503576455.3,286046999.6,N,1.8
1503576475.1,286046999.6,N,1.4
1503576495.9,286046996.7,N,1.3
1503576515.7,286046998.4,N,1.3
1503576535.5,286046997.0,N,1.3
1503576555.4,286046999.3,N,1.2
1503576575.2,286046998.9,N,1.1
1503576595.0,286046999.3,N,1.0
1503576596.0,286046999.3,N,1.1
1503576615.8,286046998.9,N,0.9
1503576635.6,286046999.6,N,0.9
1503576655.5,286046998.7,N,0.9
1503576675.3,286046998.6,N,0.8
1503576695.1,286046998.6,N,0.8
1503576715.9,286046998.4,N,0.8
1503576735.7,286046998.1,N,0.8
1503576755.6,286046998.8,N,0.8
1503576775.4,286046998.9,N,0.8
1503576795.2,286046998.1,N,0.8
1503576815.1,286046999.9,N,0.8
1503576816.0,286046999.9,N,0.8
1503576835.8,286047001.0,N,0.9
1503576855.7,286047001.0,N,1.0
1503576875.5,286047000.9,N,1.1
1503576895.3,286047000.9,N,1.1
1503576915.2,286047000.9,N,1.2
1503576935.0,286047000.0,N,1.2
1503576935.9,286047000.0,N,1.2
1503576955.8,286047001.0,N,1.2
1503576975.6,286047001.1,N,1.2
1503576995.5,286047001.0,N,1.2
1503577015.3,286047001.1,N,1.2
1503577035.1,286047000.7,N,1.1
1503577055.9,286046999.9,N,1.1
1503577075.7,286047000.3,N,1.0
1503577095.5,286047000.8,N,1.0
1503577115.4,286046999.9,N,1.0
1503577135.2,286047000.5,N,1.0
1503577155.1,286047000.6,N,1.0
1503577156.0,286047000.6,N,1.0
1503577175.8,286047000.9,N,1.0
1503577195.6,286047000.4,N,1.0
1503577215.5,286047000.1,N,0.9
1503577235.3,286047002.6,N,1.0
1503577255.2,286046999.7,N,0.9
1503577275.9,286046999.7,N,0.8
1503577295.7,286046999.7,N,0.8
1503577315.6,286047002.8,Y,0.0
1503577335.4,286047000.2,P,0.1
1503577355.3,286047002.4,P,1.0
1503577375.1,286047002.0,N,1.0
1503577395.8,286047001.7,N,0.9
1503577415.7,286047001.8,N,0.8
1503577435.5,286047002.0,N,0.8
1503577455.4,286047002.5,Y,0.0
1503577475.2,286047002.7,P,0.6
1503577495.0,286046999.7,N,1.2
1503577495.9,286046999.7,N,1.3
1503577515.8,286047002.7,N,1.3
1503577535.6,286046999.9,N,1.3
1503577555.5,286046999.8,N,1.3
1503577605.3,286047000.0,E,nan
1503577615.3,286047000.5,N,0.0
1503577635.1,286047000.4,P,0.1
1503577636.0,286047000.4,P,0.0
1503577655.8,286047000.5,Y,0.0
1503577675.7,286047000.6,P,0.1
1503577695.5,286047000.1,N,0.2
1503577715.4,286047000.7,P,0.2
1503577735.2,286047000.0,N,0.3
1503577755.0,286047000.9,Y,0.0
1503577755.9,286047000.9,P,0.3
1503577775.8,286047001.0,P,0.3
1503577795.6,286047001.0,P,0.3
1503577815.5,286047001.1,Y,0.0
1503577835.3,286046998.4,P,1.2
1503577855.1,286047001.2,N,1.2
1503577875.9,286046998.9,N,1.2
1503577895.7,286046998.8,N,1.1
1503577915.5,286046999.3,N,1.1
1503577935.4,286046998.8,N,1.0
1503577955.2,286046998.1,N,1.0
1503577975.1,286046998.2,N,1.0
1503577976.0,286046998.2,N,1.0
1503577995.8,286047001.2,N,1.2
1503578015.6,286046998.2,N,1.2
1503578035.5,286046998.2,N,1.1
1503578055.3,286046998.5,N,1.1
1503578075.2,286047000.4,N,1.1
1503578095.9,286047000.6,N,1.1
1503578115.7,286047001.2,N,1.2
1503578135.6,286047000.6,N,1.2
1503578155.4,286047001.0,N,1.2
1503578175.2,286047000.7,N,1.2
1503578195.1,286046998.6,N,1.2
1503578196.0,286046998.6,N,1.2
1503578215.8,286047000.7,N,1.2
1503578235.7,286046998.3,N,1.2
1503578285.5,286046998.1,E,nan
1503578295.4,286047000.0,N,0.0
1503578315.3,286047000.1,P,0.1
1503578335.1,286046999.8,P,0.1
1503578355.9,286047002.3,Y,0.0
1503578375.7,286046999.7,P,0.1
1503578395.5,286047002.3,P,1.2
1503578415.4,286047002.8,N,1.4
1503578435.2,286047001.9,N,1.3
1503578455.1,286047003.9,Y,0.0
1503578456.0,286047003.9,P,1.3
1503578475.8,286047000.2,N,1.5
1503578495.6,286047000.2,N,1.5
1503578515.5,286047000.8,N,1.4
1503578535.3,286047000.5,N,1.3
1503578555.1,286047000.3,N,1.2
1503578575.9,286047000.4,N,1.2
1503578595.7,286047000.4,N,1.1
1503578615.6,286047000.1,N,1.1
1503578635.4,286046999.8,N,1.1
1503578655.2,286047002.6,N,1.2
1503578675.1,286047002.8,N,1.2
1503578676.0,286047002.8,N,1.3
1503578695.8,286047006.3,Y,0.0
1503578715.3,286047004.8,P,1.8
1503578735.1,286047005.9,P,2.0
1503578755.9,286047003.1,N,1.8
1503578775.7,286047003.2,N,1.6
1503578795.6,286047003.9,N,1.5
1503578815.4,286047001.9,N,1.5
1503578835.2,286047002.3,N,1.5
1503578855.1,286047002.4,N,1.4
1503578856.0,286047002.4,N,1.4
1503578875.8,286047002.3,N,1.3
1503578895.6,286047002.3,N,1.3
1503578915.5,286047002.4,N,1.2
1503578935.3,286047000.0,N,1.4
1503578955.2,286047000.5,N,1.5
1503578975.9,286047002.3,N,1.4
1503578995.7,286047001.5,N,1.4
1503579015.6,286047002.4,N,1.4
1503579035.4,286047002.0,N,1.3
1503579055.2,286047002.7,N,1.3
1503579075.1,286046999.7,N,1.4
1503579076.0,286046999.7,N,1.5
1503579095.8,286046998.5,N,1.6
1503579115.7,286047000.5,N,1.6
1503579135.5,286047000.5,N,1.6
1503579155.3,286047000.1,N,1.6
1503579175.2,286046999.8,N,1.6
1503579195.0,286047002.8,N,1.6
1503579195.9,286047002.8,N,1.6
1503579215.8,286046999.8,N,1.6
1503579235.6,286047002.2,N,1.6
1503579255.4,286047002.2,N,1.5
1503579275.3,286047002.5,N,1.3
1503579295.1,286047002.0,N,1.3
1503579315.9,286047001.8,N,1.3
1503579335.7,286047002.0,N,1.2
1503579355.5,286047002.3,N,1.2
1503579375.4,286046999.8,N,1.2
1503579395.2,286047002.5,N,1.2
1503579415.0,286047002.3,N,1.2
1503579416.0,286047002.3,N,1.2
1503579435.8,286047002.2,N,1.2
1503579455.6,286047002.4,N,1.2
1503579475.5,286047002.3,N,1.2
1503579495.3,286047002.7,N,1.2
1503579515.2,286047002.8,N,1.2
1503579535.9,286047000.5,N,1.2
1503579555.7,286046998.2,N,1.4
1503579575.6,286046998.1,N,1.5
1503579595.4,286046998.9,N,1.5
